User: anonymous   Login
Location: Blankensee
(53.5126°N, 14.3055°E)
Time: 09:35:12
(UTC+00:00)
Language:

NPP - Orbit

View from above orbital plane
View from above orbital plane
View from above satellite
View from above satellite

Ground track
Ground track

The orbit data is extracted from the following two-line orbital elements,

1 37849U 11061A   20293.88133348 +.00000020 +00000-0 +30337-4 0  9996
2 37849 098.7100 230.0768 0000628 088.6074 347.7429 14.19557279465273
Epoch (UTC): 19 October 2020 21:09:07
Eccentricity: 0.0000628
inclination: 98.7100°
perigee height: 826 km
apogee height: 827 km
right ascension of ascending node: 230.0768°
argument of perigee: 88.6074°
revolutions per day: 14.19557279
mean anomaly at epoch: 347.7429°
orbit number at epoch: 46527

The dashed part of the orbit path shows where the satellite is in the earth's shadow,  

DLR